This is the latest recevied weather packets stored in our database for station/object NI4CE-10. If no packets are shown the sender has not sent any weather packets the latest 10 day(s).
| Time | Temp. | Humidity | Pressure | Rain* | Wind** | Luminosity | Snow |
|---|---|---|---|---|---|---|---|
| 1777581677 | 30.56° C | 100% | 1013.8 hPa | 0 mm | - | - | - |
| 1777581377 | 31.67° C | 100% | 1013.8 hPa | 0 mm | - | - | - |
| 1777581077 | 31.11° C | 100% | 1013.7 hPa | 0 mm | - | - | - |
| 1777580777 | 31.11° C | 100% | 1013.8 hPa | 0 mm | - | - | - |
| 1777580477 | 30.56° C | 100% | 1013.8 hPa | 0 mm | - | - | - |
| 1777580334 | 31.67° C | 100% | 1013.9 hPa | 0 mm | - | - | - |
| 1777580177 | 31.67° C | 100% | 1013.9 hPa | 0 mm | - | - | - |
| 1777580052 | 31.67° C | 100% | 1014 hPa | 0 mm | - | - | - |
| 1777579877 | 31.67° C | 100% | 1014 hPa | 0 mm | - | - | - |
| 1777579741 | 31.67° C | 100% | 1014 hPa | 0 mm | - | - | - |
| 1777579577 | 31.67° C | 100% | 1014 hPa | 0 mm | - | - | - |
| 1777579277 | 31.11° C | 100% | 1013.9 hPa | 0 mm | - | - | - |
| 1777578977 | 31.11° C | 100% | 1013.8 hPa | 0 mm | - | - | - |
| 1777578677 | 31.67° C | 100% | 1013.9 hPa | 0 mm | - | - | - |
| 1777578377 | 32.22° C | 100% | 1013.9 hPa | 0 mm | - | - | - |
| 1777578077 | 31.67° C | 100% | 1014 hPa | 0 mm | - | - | - |
| 1777577777 | 31.67° C | 100% | 1014.1 hPa | 0 mm | - | - | - |
| 1777577477 | 32.22° C | 100% | 1014.1 hPa | 0 mm | - | - | - |
| 1777577177 | 32.22° C | 100% | 1014.1 hPa | 0 mm | - | - | - |
| 1777576877 | 33.33° C | 100% | 1014.3 hPa | 0 mm | - | - | - |
| 1777576577 | 33.33° C | 100% | 1014.3 hPa | 0 mm | - | - | - |
| 1777576277 | 32.78° C | 100% | 1014.4 hPa | 0 mm | - | - | - |
| 1777575977 | 33.33° C | 100% | 1014.3 hPa | 0 mm | - | - | - |
| 1777575677 | 33.33° C | 100% | 1014.4 hPa | 0 mm | - | - | - |
| 1777575377 | 32.78° C | 100% | 1014.4 hPa | 0 mm | - | - | - |
* Rain latest hour (hover to see other rain measurements)
** Current wind speed in m/s (hover to see current wind gust speed)